Home > Weather > Villeurbanne > Past weeks

Flag for France Past Weather in Villeurbanne, Rhône-Alpes, France — Yesterday and Last 2 Weeks

Now
73 °F

Sunny.


Feels Like: 75 °F
Forecast: 61 / 76 °F
Wind: 2 mph from North

Location: Lyon / Bron

Current Time: Jul 31, 2016 at 11:53:34 AM

Latest Report: Jul 31, 2016 at 11:30 AM


Visibility: 10 mi

Pressure: 29.98 "Hg

Humidity: 74%

Dew Point: 64 °F

Location of VilleurbanneLocation

Past Weather in Villeurbanne — Graph

°F

Villeurbanne Temperature Yesterday

Maximum temperature yesterday: 90 °F (at 4:00 PM)
Minimum temperature yesterday: 66 °F (at 6:00 AM)
Average temperature yesterday: 76 °F

High & Low Weather Summary for the Past Weeks

 TemperatureHumidityPressure
High93 °F (Jul 19, 4:00 PM)100% (Jul 23, 12:00 AM)30.27 "Hg (Jul 23, 12:00 AM)
Low55 °F (Jul 17, 5:00 AM)15% (Jul 20, 3:00 PM)29.83 "Hg (Jul 31, 2:00 AM)
Average75 °F59%30.06 "Hg
* Reported Jul 16 10:00 AM — Jul 31 10:30 AM, Villeurbanne, Weather by CustomWeather, © 2016

Note: Actual official high and low records may vary slightly from our data, if they occured in-between our weather recording intervals... More about our weather records

Advertising

Villeurbanne Weather History for the Previous 24 Hours

Scroll right to see more
 ConditionsComfort  
Time TempWeatherWind HumidityBarometerVisibility
10:30 AM
Sun, Jul 31
70 °FSunny.3 mph83%29.98 "Hg10 mi
10:00 AM70 °FSunny.5 mph83%29.98 "Hg10 mi
9:30 AM68 °FSunny.3 mph88%29.98 "Hg10 mi
9:00 AM68 °FSunny.2 mph88%29.98 "Hg10 mi
8:30 AM68 °FSunny.No wind88%29.98 "Hg10 mi
8:00 AM66 °FSunny.1 mph94%29.95 "Hg10 mi
7:30 AM66 °FSunny.2 mph94%29.95 "Hg10 mi
7:00 AM66 °FClear.2 mph94%29.95 "Hg10 mi
6:30 AM66 °FLight rain. Clear.6 mph94%29.98 "HgN/A
6:00 AM66 °FLight rain. Overcast.9 mph94%29.92 "HgN/A
5:30 AM66 °FLight rain. Overcast.7 mph94%29.95 "HgN/A
5:00 AM66 °FRain. Overcast.7 mph94%29.98 "HgN/A
4:30 AM68 °FRain. Overcast.10 mph88%29.98 "HgN/A
4:00 AM68 °FLight rain. Overcast.10 mph88%29.98 "HgN/A
3:30 AM68 °FClear.7 mph88%29.98 "Hg10 mi
3:00 AM68 °FPassing clouds.10 mph88%29.98 "HgN/A
2:30 AM68 °FMostly cloudy.12 mph83%29.95 "HgN/A
2:00 AM68 °FRain. Overcast.21 mph78%29.83 "Hg6 mi
1:30 AM68 °FRain. Overcast.22 mph88%29.95 "HgN/A
1:00 AM70 °FLight rain. Overcast.16 mph88%29.98 "HgN/A
12:30 AM68 °FLight rain. Overcast.14 mph94%29.98 "HgN/A
12:00 AM68 °FThunderstorms. Mostly cloudy.12 mph88%29.95 "HgN/A
11:30 PM
Sat, Jul 30
70 °FThunderstorms. Partly cloudy.6 mph83%29.98 "HgN/A
11:00 PM75 °FThunderstorms. Mostly cloudy.18 mph69%29.98 "HgN/A
10:30 PM75 °FThunderstorms. Overcast.8 mph83%29.92 "HgN/A
10:00 PM75 °FThunderstorms. Cloudy.5 mph78%29.89 "HgN/A
9:30 PM75 °FPartly sunny.2 mph78%29.89 "HgN/A
9:00 PM77 °FThundershowers. Cloudy.6 mph69%29.89 "HgN/A
8:30 PM77 °FLight rain. Broken clouds.13 mph74%29.89 "HgN/A
8:00 PM75 °FThunderstorms. Cloudy.2 mph83%29.92 "HgN/A
7:30 PM75 °FThundershowers. Cloudy.3 mph83%29.89 "HgN/A
7:00 PM79 °FThunderstorms. Broken clouds.7 mph65%29.89 "HgN/A
6:30 PM88 °FThundershowers. Cloudy.7 mph40%29.89 "HgN/A
6:00 PM90 °FHot.7 mph36%29.89 "HgN/A
5:30 PM90 °FPassing clouds.8 mph38%29.89 "HgN/A
5:00 PM88 °FWarm.8 mph40%29.92 "HgN/A
4:30 PM88 °FPleasantly warm.12 mph38%29.92 "HgN/A
4:00 PM90 °FPassing clouds.12 mph38%29.92 "HgN/A
3:30 PM86 °FWarm.10 mph46%29.95 "HgN/A
3:00 PM86 °FPassing clouds.12 mph46%29.95 "HgN/A
2:30 PM82 °FPartly sunny.14 mph58%29.95 "HgN/A
2:00 PM77 °FLight rain. Broken clouds.No wind65%30.01 "HgN/A
1:30 PM79 °FWarm.3 mph58%30.01 "HgN/A
1:00 PM77 °FWarm.6 mph61%29.98 "HgN/A
12:30 PM77 °FWarm.7 mph61%30.01 "HgN/A
12:00 PM81 °FWarm.10 mph54%30.01 "HgN/A
11:30 AM77 °FPassing clouds.5 mph61%29.98 "HgN/A
11:00 AM77 °FWarm.5 mph65%30.01 "HgN/A
Weather by CustomWeather, © 2016

See weather overviewHow to use our weather pages